Previsão horária em Barlozno

Hoje, 26 Julho, Segunda-feira

Tempo Temperatura Precipitação Vento Pressão Humidade
00:00 +19°C° 0 mm 2 m/s 753 mmHg 85%
01:00 +19°C° 0 mm 2 m/s 753 mmHg 87%
02:00 +19°C° 0 mm 2 m/s 753 mmHg 87%
03:00 +18°C° 0 mm 2 m/s 753 mmHg 87%
04:00 +18°C° 0 mm 2 m/s 753 mmHg 86%
05:00 +19°C° 0 mm 3 m/s 753 mmHg 81%
06:00 +21°C° 0 mm 3 m/s 753 mmHg 76%
07:00 +22°C° 0 mm 3 m/s 753 mmHg 70%
08:00 +22°C° 0 mm 3 m/s 753 mmHg 68%
09:00 +23°C° 0 mm 4 m/s 753 mmHg 66%
10:00 +23°C° 0 mm 4 m/s 753 mmHg 64%
11:00 +26°C° 0 mm 4 m/s 753 mmHg 59%
12:00 +27°C° 0 mm 4 m/s 752 mmHg 55%
13:00 +29°C° 0 mm 4 m/s 752 mmHg 50%
14:00 +28°C° 0.2 mm 4 m/s 752 mmHg 56%
15:00 +27°C° 0.2 mm 3 m/s 752 mmHg 61%
16:00 +26°C° 0.2 mm 3 m/s 751 mmHg 67%
17:00 +26°C° 0.3 mm 3 m/s 751 mmHg 70%
18:00 +25°C° 0.3 mm 3 m/s 751 mmHg 74%
19:00 +25°C° 0.3 mm 3 m/s 751 mmHg 77%
20:00 +22°C° 0.6 mm 3 m/s 751 mmHg 83%
21:00 +21°C° 0.6 mm 2 m/s 751 mmHg 89%
22:00 +20°C° 0.6 mm 2 m/s 752 mmHg 94%
23:00 +20°C° 0.3 mm 2 m/s 751 mmHg 94%

Amanhã, 27 Julho, Terça-feira

Tempo Temperatura Precipitação Vento Pressão Humidade
00:00 +20°C° 0.3 mm 1 m/s 751 mmHg 95%
01:00 +20°C° 0.3 mm 1 m/s 751 mmHg 95%
02:00 +19°C° 0 mm 1 m/s 751 mmHg 95%
03:00 +19°C° 0 mm 1 m/s 751 mmHg 96%
04:00 +19°C° 0 mm 1 m/s 751 mmHg 96%
05:00 +20°C° 0 mm 1 m/s 751 mmHg 93%
06:00 +21°C° 0 mm 1 m/s 751 mmHg 89%
07:00 +22°C° 0 mm 1 m/s 751 mmHg 86%
08:00 +24°C° 0.2 mm 1 m/s 751 mmHg 78%
09:00 +26°C° 0.2 mm 2 m/s 751 mmHg 71%
10:00 +27°C° 0.2 mm 2 m/s 751 mmHg 63%
11:00 +28°C° 0.1 mm 3 m/s 751 mmHg 58%
12:00 +29°C° 0.1 mm 3 m/s 751 mmHg 52%
13:00 +30°C° 0.1 mm 4 m/s 751 mmHg 47%
14:00 +29°C° 0 mm 4 m/s 751 mmHg 49%
15:00 +28°C° 0 mm 4 m/s 751 mmHg 51%
16:00 +28°C° 0 mm 5 m/s 751 mmHg 54%
17:00 +27°C° 0.1 mm 3 m/s 751 mmHg 60%
18:00 +26°C° 0.1 mm 2 m/s 751 mmHg 66%
19:00 +25°C° 0.1 mm 1 m/s 751 mmHg 72%
20:00 +23°C° 0.1 mm 1 m/s 752 mmHg 75%
21:00 +22°C° 0.1 mm 1 m/s 752 mmHg 79%
22:00 +19°C° 0.1 mm 0 m/s 752 mmHg 82%
23:00 +21°C° 0 mm 1 m/s 752 mmHg 83%

Depois de amanhã, 28 Julho, Quarta-feira

Tempo Temperatura Precipitação Vento Pressão Humidade
00:00 +21°C° 0 mm 1 m/s 752 mmHg 84%
01:00 +20°C° 0 mm 1 m/s 752 mmHg 84%
02:00 +20°C° 0 mm 1 m/s 752 mmHg 85%
03:00 +19°C° 0 mm 2 m/s 752 mmHg 85%
04:00 +19°C° 0 mm 2 m/s 752 mmHg 85%
05:00 +20°C° 0 mm 3 m/s 752 mmHg 79%
06:00 +21°C° 0 mm 3 m/s 752 mmHg 73%
07:00 +24°C° 0 mm 3 m/s 752 mmHg 67%
08:00 +25°C° 0 mm 4 m/s 752 mmHg 59%
09:00 +27°C° 0 mm 4 m/s 752 mmHg 52%
10:00 +28°C° 0 mm 4 m/s 752 mmHg 44%
11:00 +29°C° 0 mm 4 m/s 752 mmHg 42%
12:00 +29°C° 0 mm 4 m/s 752 mmHg 41%
13:00 +29°C° 0 mm 4 m/s 752 mmHg 39%
14:00 +29°C° 0 mm 3 m/s 752 mmHg 41%
15:00 +28°C° 0 mm 3 m/s 752 mmHg 44%
16:00 +28°C° 0 mm 2 m/s 752 mmHg 46%
17:00 +27°C° 0 mm 2 m/s 752 mmHg 51%
18:00 +25°C° 0 mm 2 m/s 752 mmHg 57%
19:00 +24°C° 0 mm 1 m/s 751 mmHg 63%
20:00 +23°C° 0.1 mm 1 m/s 752 mmHg 65%
21:00 +23°C° 0.1 mm 1 m/s 752 mmHg 68%
22:00 +22°C° 0.1 mm 1 m/s 752 mmHg 71%
23:00 +21°C° 0 mm 1 m/s 752 mmHg 74%

29 Julho, Quinta-feira

Tempo Temperatura Precipitação Vento Pressão Humidade
00:00 +20°C° 0 mm 2 m/s 752 mmHg 77%
01:00 +19°C° 0 mm 2 m/s 752 mmHg 80%
02:00 +18°C° 0 mm 3 m/s 752 mmHg 83%
03:00 +18°C° 0 mm 3 m/s 752 mmHg 87%
04:00 +17°C° 0 mm 3 m/s 752 mmHg 90%
05:00 +18°C° 0 mm 3 m/s 752 mmHg 84%
06:00 +20°C° 0 mm 3 m/s 752 mmHg 78%
07:00 +21°C° 0 mm 3 m/s 752 mmHg 71%
08:00 +24°C° 0 mm 3 m/s 752 mmHg 64%
09:00 +25°C° 0 mm 4 m/s 752 mmHg 57%
10:00 +27°C° 0 mm 4 m/s 752 mmHg 50%
11:00 +28°C° 0 mm 4 m/s 752 mmHg 46%
12:00 +29°C° 0 mm 5 m/s 752 mmHg 41%
13:00 +30°C° 0 mm 5 m/s 751 mmHg 37%
14:00 +29°C° 0 mm 4 m/s 751 mmHg 41%
15:00 +28°C° 0 mm 4 m/s 751 mmHg 44%
16:00 +27°C° 0 mm 4 m/s 751 mmHg 48%
17:00 +26°C° 0 mm 3 m/s 751 mmHg 52%
18:00 +25°C° 0 mm 2 m/s 751 mmHg 57%
19:00 +24°C° 0 mm 1 m/s 751 mmHg 62%
20:00 +23°C° 0 mm 1 m/s 750 mmHg 63%
21:00 +23°C° 0 mm 1 m/s 750 mmHg 65%
22:00 +22°C° 0 mm 1 m/s 750 mmHg 67%
23:00 +22°C° 0 mm 1 m/s 750 mmHg 69%

30 Julho, Sexta-feira

Tempo Temperatura Precipitação Vento Pressão Humidade
00:00 +21°C° 0 mm 1 m/s 750 mmHg 71%
01:00 +20°C° 0 mm 1 m/s 749 mmHg 73%
02:00 +19°C° 0 mm 2 m/s 749 mmHg 74%
03:00 +19°C° 0 mm 2 m/s 749 mmHg 74%
04:00 +19°C° 0 mm 2 m/s 748 mmHg 75%
05:00 +19°C° 0.2 mm 3 m/s 748 mmHg 74%
06:00 +20°C° 0.2 mm 3 m/s 748 mmHg 74%
07:00 +21°C° 0.2 mm 4 m/s 748 mmHg 74%
08:00 +22°C° 0.2 mm 4 m/s 748 mmHg 71%
09:00 +23°C° 0.2 mm 4 m/s 748 mmHg 68%
10:00 +25°C° 0.2 mm 4 m/s 747 mmHg 65%
11:00 +26°C° 0.1 mm 4 m/s 747 mmHg 61%
12:00 +26°C° 0.1 mm 4 m/s 747 mmHg 57%
13:00 +27°C° 0.1 mm 4 m/s 747 mmHg 53%
14:00 +27°C° 0 mm 4 m/s 747 mmHg 51%
15:00 +26°C° 0 mm 4 m/s 747 mmHg 49%
16:00 +26°C° 0 mm 4 m/s 746 mmHg 47%
17:00 +25°C° 0 mm 4 m/s 746 mmHg 50%
18:00 +25°C° 0 mm 3 m/s 746 mmHg 53%
19:00 +24°C° 0 mm 3 m/s 746 mmHg 55%
20:00 +22°C° 0 mm 3 m/s 746 mmHg 57%
21:00 +21°C° 0 mm 3 m/s 746 mmHg 59%
22:00 +20°C° 0 mm 3 m/s 746 mmHg 61%
23:00 +19°C° 0 mm 3 m/s 746 mmHg 61%

31 Julho, Sábado

Tempo Temperatura Precipitação Vento Pressão Humidade
00:00 +19°C° 0 mm 4 m/s 746 mmHg 62%
01:00 +19°C° 0 mm 4 m/s 747 mmHg 63%
02:00 +18°C° 0 mm 4 m/s 747 mmHg 64%
03:00 +18°C° 0 mm 4 m/s 747 mmHg 66%
04:00 +16°C° 0 mm 5 m/s 747 mmHg 67%
05:00 +17°C° 0 mm 5 m/s 747 mmHg 66%
06:00 +17°C° 0 mm 6 m/s 747 mmHg 64%
07:00 +19°C° 0 mm 6 m/s 747 mmHg 63%
08:00 +20°C° 0 mm 7 m/s 748 mmHg 58%
09:00 +20°C° 0 mm 7 m/s 748 mmHg 54%
10:00 +21°C° 0 mm 7 m/s 748 mmHg 49%
11:00 +22°C° 0 mm 7 m/s 748 mmHg 46%
12:00 +23°C° 0 mm 7 m/s 748 mmHg 42%
13:00 +23°C° 0 mm 7 m/s 748 mmHg 39%
14:00 +24°C° 0 mm 6 m/s 748 mmHg 37%
15:00 +24°C° 0 mm 6 m/s 748 mmHg 36%
16:00 +24°C° 0 mm 6 m/s 748 mmHg 34%
17:00 +23°C° 0 mm 5 m/s 748 mmHg 40%
18:00 +22°C° 0 mm 4 m/s 748 mmHg 46%
19:00 +21°C° 0 mm 3 m/s 749 mmHg 52%
20:00 +20°C° 0 mm 3 m/s 749 mmHg 56%
21:00 +19°C° 0 mm 4 m/s 749 mmHg 60%
22:00 +18°C° 0 mm 4 m/s 749 mmHg 64%
23:00 +18°C° 0 mm 4 m/s 749 mmHg 69%
Mostrar mais